TimeCEST,TemperatureF,Dew PointF,Humidity,Sea Level PressureIn,VisibilityMPH,Wind Direction,Wind SpeedMPH,Gust SpeedMPH,PrecipitationIn,Events,Conditions,WindDirDegrees,DateUTC
6:00 AM,73.4,55.4,53,30.06,-9999.0,South,4.6,-,N/A,,Clear,180,2013-07-07 04:00:00
7:00 AM,71.6,55.4,57,30.06,-9999.0,Calm,Calm,-,N/A,,Clear,0,2013-07-07 05:00:00
8:00 AM,73,63,62,30.07,19,Calm,Calm,,,,,,2013-07-07 06:00:00
8:00 AM,71.6,59.0,64,30.06,-9999.0,Calm,Calm,-,N/A,,Clear,0,2013-07-07 06:00:00
9:00 AM,77.0,60.8,57,30.09,-9999.0,Calm,Calm,-,N/A,,Clear,0,2013-07-07 07:00:00
10:00 AM,80.6,57.2,45,30.09,-9999.0,Variable,2.3,-,N/A,,Clear,0,2013-07-07 08:00:00
11:00 AM,86.0,55.4,35,30.09,-9999.0,ENE,3.5,-,N/A,,Clear,60,2013-07-07 09:00:00
12:00 PM,89.6,55.4,31,30.09,-9999.0,ENE,3.5,-,N/A,,Clear,70,2013-07-07 10:00:00
1:00 PM,93.2,57.2,30,30.09,-9999.0,ENE,5.8,-,N/A,,Clear,60,2013-07-07 11:00:00
2:00 PM,98,66,26,30.04,19,NE,9.2,,,,,40,2013-07-07 12:00:00
2:00 PM,98.6,53.6,22,30.06,-9999.0,ENE,6.9,-,N/A,,Clear,60,2013-07-07 12:00:00
3:00 PM,98.6,51.8,21,30.06,-9999.0,NE,6.9,-,N/A,,Clear,50,2013-07-07 13:00:00
4:00 PM,102.2,51.8,18,30.04,-9999.0,NE,3.5,-,N/A,,Clear,50,2013-07-07 14:00:00
5:00 PM,102.2,48.2,16,30.01,-9999.0,East,3.5,-,N/A,,Clear,90,2013-07-07 15:00:00
6:00 PM,104.0,48.2,15,30.01,-9999.0,East,6.9,-,N/A,,Clear,100,2013-07-07 16:00:00
7:00 PM,104.0,44.6,13,29.98,-9999.0,East,3.5,-,N/A,,Clear,80,2013-07-07 17:00:00
8:00 PM,104,63,18,29.93,19,South,2.3,,,,,170,2013-07-07 18:00:00
8:00 PM,104.0,42.8,12,29.98,-9999.0,Variable,1.2,-,N/A,,Clear,0,2013-07-07 18:00:00
9:00 PM,102.2,48.2,16,29.98,-9999.0,Calm,Calm,-,N/A,,Clear,0,2013-07-07 19:00:00
10:00 PM,96.8,55.4,25,29.98,-9999.0,Calm,Calm,-,N/A,,Clear,0,2013-07-07 20:00:00